Wind_Speed
81 82 84 86 89 91 92 93 93 92 91 88 89 91 91 91 89 87 83 82 79 80 79 77 71 70 67 65 67 68 68 62 68 61 61 64 64 66 61 58 62 68 68
90 91 90 90 91 91 91 90 90 90 92 92 90 91 93 93 93 93 92 89 87 81 83 82 80 75 77 74 68 62 69 67 63 53 59 65 68 65 61 62 69 69 69
96 96 95 97 97 97 98 98 98 95 93 92 91 91 91 91 92 90 90 91 89 89 87 85 84 82 79 76 68 67 65 65 68 64 68 66 66 64 64 68 69 70 72
102 103 102 102 102 102 103 103 103 102 100 99 98 96 94 93 94 94 91 86 88 88 87 85 86 86 84 80 75 67 67 65 66 71 70 69 69 69 69 75 75 75 75
106 106 106 106 107 107 106 106 106 106 106 105 105 104 102 97 98 98 96 93 87 88 89 87 84 88 89 82 80 78 70 65 68 69 69 72 74 74 75 76 76 80 66
105 105 105 106 106 106 104 103 103 103 104 105 104 104 105 104 104 103 103 101 98 98 93 91 89 84 88 88 82 80 79 78 73 78 78 77 75 76 76 76 75 80 76
84 84 87 89 92 95 96 97 99 101 103 104 104 103 104 103 100 101 105 104 103 105 100 96 94 87 84 89 83 82 84 85 79 78 83 82 79 83 81 82 85 86 86
84 85 85 86 88 87 87 91 91 95 99 101 100 101 99 98 98 98 99 100 99 101 100 98 95 94 87 87 86 84 85 88 92 88 93 89 89 88 89 87 86 90 89
91 91 90 89 90 88 87 91 92 93 98 99 96 93 93 92 94 95 98 91 89 93 96 97 96 95 91 87 91 91 89 91 93 96 92 94 96 96 97 91 90 89 93
91 93 94 93 93 90 89 91 94 92 93 86 85 84 85 86 89 89 85 84 84 83 86 90 92 96 87 92 88 87 90 93 94 93 94 95 99 98 93 93 90 90 94
96 95 93 91 89 86 81 81 78 75 75 67 58 64 67 66 65 69 75 82 82 80 83 82 88 95 71 82 91 94 92 93 95 95 97 97 96 93 94 95 94 95 99
91 87 81 73 69 69 67 61 62 61 59 52 47 46 50 51 52 57 66 72 79 77 76 80 84 89 92 94 76 91 96 100 98 98 96 93 96 98 100 99 96 95 96
75 71 67 61 57 57 55 53 50 51 51 44 40 35 36 39 43 46 54 60 67 72 77 77 78 81 85 92 86 80 78 90 93 89 90 92 96 98 97 93 90 87 89
65 62 58 54 50 48 45 45 43 41 39 35 30 28 27 29 35 38 45 54 62 72 80 78 84 87 88 89 91 94 91 95 94 98 97 90 91 93 89 87 84 89 90
58 55 50 48 44 40 38 36 35 31 30 24 23 19 20 23 27 31 38 47 55 66 81 83 83 85 86 88 91 89 94 96 96 101 97 96 93 96 88 89 90 94 96
50 49 45 42 39 35 31 30 28 27 21 18 14 14 16 18 23 30 35 41 49 60 71 79 81 80 79 83 86 91 94 100 100 97 96 93 93 94 92 91 94 94 95
43 42 41 36 33 31 27 26 26 22 19 16 15 20 20 23 27 35 44 50 53 58 63 72 77 78 81 82 88 97 101 101 99 95 91 94 93 96 95 94 94 97 96
41 39 37 35 31 31 25 25 29 25 21 18 26 27 28 31 33 43 48 56 61 63 63 63 67 70 79 82 85 90 96 96 92 96 96 95 96 98 98 100 99 100 96
39 37 33 32 32 32 29 22 28 31 29 28 33 39 37 37 43 46 49 57 59 62 68 69 72 78 82 85 92 91 91 93 94 96 96 96 97 99 98 98 96 97 93
38 37 35 31 32 34 34 31 25 35 38 38 41 46 48 51 51 56 57 61 64 68 70 74 81 89 92 95 97 97 100 103 101 100 102 101 103 101 99 95 95 95 91
38 37 36 33 33 35 37 38 36 35 45 45 50 49 53 55 56 58 63 67 68 75 79 84 87 90 94 97 103 107 106 105 105 106 106 104 103 103 103 95 101 98 93
38 36 37 36 35 35 37 38 39 40 41 52 52 55 56 62 63 62 65 66 70 74 80 85 89 94 97 100 102 103 105 107 105 105 107 106 102 102 103 100 89 84 77
35 36 37 38 37 36 36 38 38 40 41 43 48 58 62 60 62 68 70 70 73 74 75 76 78 80 82 88 92 95 92 92 94 98 98 93 87 81 82 78 75 71 64
33 33 36 35 33 33 34 34 36 37 40 43 44 46 53 65 63 64 64 67 70 70 67 65 65 66 74 80 84 84 78 73 75 76 75 73 72 69 64 59 52 46 42
29 28 29 30 29 28 28 31 33 34 34 36 38 40 43 48 51 54 59 65 64 61 59 56 55 56 55 54 54 53 52 53 53 52 53 50 48 46 44 40 35 32 29
24 24 24 24 24 25 25 25 27 29 30 31 32 32 32 35 39 41 43 45 46 48 49 49 47 42 40 40 38 38 39 39 40 39 38 36 34 30 28 26 23 22 24
Wind_Direction
271 270 268 266 264 262 263 264 265 266 266 265 263 263 262 262 261 262 261 259 257 261 263 261 255 255 256 258 259 267 269 274 278 273 261 262 271 277 286 285 292 299 305
274 273 273 273 272 271 270 267 264 263 262 261 260 259 259 260 261 261 259 259 259 256 256 259 258 259 261 259 266 267 268 271 274 261 260 269 274 276 281 286 293 297 299
272 272 272 272 272 272 272 272 271 268 265 263 261 259 259 258 259 260 261 261 261 258 255 253 256 258 260 259 263 263 265 267 267 261 265 271 273 273 280 285 288 292 297
273 272 272 271 271 270 270 270 269 269 268 267 265 261 257 256 257 257 257 256 258 259 257 254 251 255 257 258 259 259 262 259 258 259 262 264 264 268 273 281 288 291 291
273 273 273 272 272 271 270 270 270 269 267 265 263 263 261 258 254 254 254 255 255 256 257 255 254 250 254 254 256 258 255 260 259 259 261 263 267 271 276 279 282 286 289
274 274 274 274 274 273 272 271 271 272 270 268 267 264 261 259 257 254 251 251 252 254 254 255 254 251 251 255 255 255 253 257 259 254 253 261 266 270 273 276 279 281 284
278 278 277 276 276 275 275 274 272 271 270 269 267 266 264 262 259 255 251 248 248 249 250 251 253 251 248 254 255 254 256 252 257 253 254 258 263 265 268 271 274 279 284
281 280 280 279 279 279 278 277 275 274 273 271 271 269 267 265 262 259 253 247 244 245 245 246 248 252 249 249 254 256 256 255 253 260 263 261 260 267 269 274 276 281 285
281 281 281 281 280 281 280 279 278 276 274 274 274 273 269 265 261 257 254 250 244 242 242 241 242 247 248 250 254 255 255 256 256 258 263 263 266 269 269 275 279 284 285
284 284 284 284 284 283 282 280 279 280 278 276 275 272 267 262 259 256 252 249 245 240 236 235 235 241 244 252 249 252 253 255 257 258 262 267 268 271 273 276 278 282 284
287 287 286 286 287 286 284 283 284 283 281 282 278 270 268 264 258 251 246 241 239 236 234 229 230 234 230 247 246 251 252 253 257 259 262 265 266 269 271 273 276 279 283
288 288 287 287 285 285 285 286 286 290 290 289 283 275 267 262 254 244 238 234 231 229 230 230 226 230 233 239 245 255 255 255 256 258 259 263 264 268 273 276 279 280 281
287 287 288 288 287 287 289 290 291 292 292 296 291 281 266 259 251 242 235 229 226 222 224 225 226 228 231 233 234 246 245 252 256 253 258 260 263 266 272 275 277 278 282
289 289 290 291 289 287 288 291 294 290 295 298 292 282 267 251 243 237 229 222 219 218 218 218 222 223 226 232 233 236 244 247 250 256 261 259 261 265 267 269 274 278 280
289 289 289 289 285 284 283 290 288 286 294 293 284 271 261 246 236 228 222 217 217 214 218 217 221 223 227 233 238 242 246 249 249 252 255 257 262 265 265 268 273 277 281
289 290 288 282 280 280 276 281 277 281 279 282 257 241 232 225 209 206 208 206 206 211 214 217 220 224 226 227 234 235 245 250 251 254 257 261 262 265 266 268 272 278 279
290 291 287 280 276 272 268 267 259 258 262 253 214 196 193 192 194 198 193 193 197 202 208 213 217 222 226 230 234 237 242 248 249 254 256 259 262 263 266 269 272 276 280
290 290 285 276 268 265 256 262 252 238 233 229 193 185 184 184 189 194 200 199 200 202 205 209 213 217 225 228 234 239 242 246 250 252 256 259 261 265 268 270 274 277 279
289 290 283 270 265 260 254 250 251 234 221 218 201 186 192 197 197 200 201 204 203 202 205 209 210 217 221 227 231 238 245 248 250 255 258 260 264 265 268 270 276 280 283
284 286 285 272 259 255 251 246 247 235 227 214 210 204 206 202 204 209 209 208 206 209 212 214 218 221 225 228 232 237 243 246 251 256 257 260 262 266 268 272 275 279 287
277 276 278 276 263 253 250 249 243 238 229 223 215 221 215 214 218 217 214 214 215 216 219 220 222 225 229 234 237 239 245 249 252 255 260 263 265 270 276 277 281 284 285
273 272 273 272 269 260 253 249 245 238 237 232 228 227 225 225 227 226 227 228 227 227 228 229 229 233 237 241 244 246 249 252 255 258 261 265 268 270 275 277 274 274 275
279 275 271 270 270 269 263 255 250 248 245 242 239 233 233 236 237 235 236 237 237 240 240 242 243 245 250 252 255 256 259 263 268 271 271 271 266 263 265 269 271 273 275
286 281 280 279 274 270 269 266 260 254 250 250 249 247 244 242 244 248 248 248 250 253 256 258 258 259 259 261 261 266 268 265 266 261 258 258 260 262 267 269 270 269 267
288 285 280 279 278 274 267 262 262 262 259 256 253 252 252 249 249 252 254 255 257 259 260 262 264 263 261 259 255 257 259 260 259 261 262 264 265 265 264 263 260 256 251
290 284 284 282 279 276 272 267 263 261 261 261 262 260 256 255 255 257 259 260 262 263 263 265 266 267 266 267 266 265 264 264 263 263 263 263 261 258 253 246 239 233 227
Height
10688 10688 10687 10688 10688 10689 10688 10687 10688 10690 10690 10692 10692 10690 10691 10692 10694 10697 10703 10706 10713 10711 10711 10713 10717 10720 10722 10723 10722 10719 10718 10717 10717 10717 10718 10715 10716 10717 10718 10718 10717 10716 10715
10664 10662 10661 10659 10659 10657 10658 10660 10661 10664 10663 10664 10665 10667 10668 10670 10668 10671 10676 10681 10685 10692 10693 10692 10695 10700 10701 10704 10706 10702 10701 10701 10702 10703 10703 10702 10703 10705 10706 10706 10704 10703 10703
10636 10636 10635 10632 10628 10627 10625 10624 10625 10630 10634 10635 10638 10640 10642 10644 10645 10646 10649 10654 10657 10663 10667 10672 10675 10678 10682 10686 10690 10688 10685 10686 10687 10689 10689 10690 10690 10692 10693 10691 10690 10690 10687
10609 10607 10606 10604 10600 10597 10595 10594 10592 10593 10597 10600 10601 10606 10612 10615 10616 10618 10622 10629 10631 10634 10639 10647 10655 10657 10660 10668 10671 10673 10669 10669 10672 10672 10673 10673 10674 10675 10677 10678 10676 10673 10672
10577 10574 10572 10569 10565 10564 10563 10560 10558 10558 10560 10563 10565 10566 10571 10580 10583 10587 10592 10600 10608 10610 10612 10622 10628 10635 10640 10649 10653 10651 10655 10655 10655 10655 10655 10656 10658 10659 10661 10661 10662 10660 10658
10541 10540 10537 10534 10531 10528 10528 10528 10526 10525 10523 10522 10526 10530 10532 10538 10542 10549 10559 10569 10576 10579 10588 10595 10602 10611 10619 10624 10630 10634 10635 10638 10638 10637 10636 10638 10640 10643 10645 10646 10644 10641 10640
10512 10511 10506 10504 10499 10497 10496 10494 10492 10490 10486 10485 10487 10491 10493 10496 10503 10509 10516 10529 10542 10548 10562 10571 10578 10587 10596 10600 10607 10611 10612 10617 10618 10617 10619 10622 10625 10626 10627 10627 10626 10623 10620
10487 10484 10481 10477 10471 10471 10469 10464 10462 10456 10449 10446 10451 10451 10454 10460 10464 10466 10473 10490 10509 10518 10533 10547 10555 10560 10573 10579 10584 10589 10592 10591 10597 10596 10597 10603 10605 10603 10606 10605 10603 10603 10602
10461 10457 10452 10450 10445 10444 10442 10434 10431 10425 10414 10412 10413 10413 10414 10416 10420 10427 10434 10454 10476 10491 10504 10518 10534 10536 10548 10561 10564 10567 10570 10570 10573 10575 10577 10580 10582 10582 10585 10584 10584 10584 10584
10434 10429 10424 10420 10415 10414 10411 10403 10394 10391 10381 10379 10378 10376 10372 10374 10379 10389 10405 10421 10440 10456 10473 10489 10507 10515 10533 10532 10540 10543 10548 10549 10548 10556 10558 10559 10559 10560 10563 10564 10567 10564 10563
10405 10400 10395 10392 10386 10380 10378 10372 10366 10360 10352 10350 10350 10342 10341 10344 10349 10358 10368 10383 10403 10424 10441 10462 10478 10493 10507 10506 10514 10519 10524 10528 10530 10536 10539 10538 10540 10539 10542 10546 10548 10546 10545
10377 10371 10368 10367 10362 10355 10351 10351 10344 10338 10331 10328 10324 10321 10320 10321 10323 10330 10337 10352 10371 10397 10419 10437 10455 10468 10482 10491 10497 10496 10498 10499 10507 10514 10518 10518 10520 10521 10522 10522 10527 10525 10525
10353 10349 10345 10344 10341 10337 10334 10332 10329 10323 10315 10313 10308 10306 10304 10305 10307 10314 10322 10336 10355 10378 10394 10414 10431 10447 10453 10462 10477 10476 10469 10477 10482 10492 10497 10499 10501 10504 10502 10502 10504 10503 10504
10333 10330 10328 10326 10324 10322 10320 10318 10315 10311 10305 10302 10299 10296 10294 10295 10297 10303 10311 10322 10337 10353 10370 10390 10401 10414 10424 10437 10449 10452 10457 10452 10464 10468 10472 10477 10481 10484 10486 10486 10484 10485 10486
10317 10315 10314 10311 10310 10310 10308 10307 10305 10301 10298 10296 10292 10290 10288 10289 10293 10298 10305 10315 10327 10341 10352 10371 10384 10396 10409 10418 10429 10434 10433 10437 10445 10446 10450 10456 10460 10460 10466 10468 10469 10468 10466
10304 10301 10298 10297 10297 10298 10298 10297 10297 10295 10293 10292 10289 10288 10287 10288 10291 10296 10302 10309 10318 10331 10343 10358 10372 10385 10397 10405 10409 10416 10416 10415 10421 10425 10431 10433 10440 10441 10444 10449 10447 10450 10448
10293 10290 10286 10286 10286 10287 10289 10288 10289 10290 10289 10288 10287 10287 10287 10288 10292 10294 10299 10305 10314 10323 10334 10348 10361 10371 10381 10388 10391 10391 10394 10392 10399 10409 10413 10416 10420 10420 10424 10426 10428 10430 10429
10283 10280 10277 10274 10276 10277 10279 10280 10281 10283 10284 10284 10284 10287 10288 10291 10294 10297 10300 10304 10310 10319 10329 10339 10348 10356 10361 10365 10369 10371 10372 10379 10386 10388 10392 10395 10398 10401 10403 10404 10406 10408 10407
10271 10268 10267 10265 10265 10267 10269 10271 10272 10276 10279 10280 10281 10281 10287 10291 10294 10297 10300 10303 10307 10313 10320 10325 10331 10336 10341 10347 10351 10353 10356 10360 10364 10370 10374 10376 10378 10379 10382 10383 10387 10388 10389
10259 10257 10255 10254 10254 10255 10257 10260 10262 10266 10271 10273 10276 10277 10278 10280 10283 10289 10293 10296 10299 10303 10306 10310 10314 10316 10321 10327 10331 10335 10337 10341 10347 10351 10352 10355 10355 10358 10361 10364 10365 10366 10370
10246 10244 10242 10241 10241 10243 10245 10247 10251 10253 10257 10263 10265 10268 10269 10270 10274 10276 10279 10282 10286 10290 10292 10295 10298 10301 10306 10309 10312 10315 10320 10324 10328 10330 10333 10334 10336 10340 10344 10348 10345 10343 10344
10233 10232 10230 10229 10228 10229 10230 10233 10236 10240 10243 10247 10252 10256 10259 10262 10264 10265 10268 10271 10274 10276 10278 10281 10283 10287 10290 10294 10296 10300 10303 10305 10311 10313 10314 10317 10319 10319 10321 10321 10317 10314 10318
10222 10221 10219 10218 10218 10218 10219 10221 10223 10226 10229 10233 10236 10241 10244 10247 10251 10253 10255 10256 10258 10261 10264 10268 10271 10273 10275 10278 10280 10284 10289 10292 10295 10299 10300 10299 10295 10292 10292 10293 10294 10296 10297
10213 10211 10209 10208 10208 10210 10210 10210 10212 10214 10216 10219 10221 10224 10227 10231 10233 10237 10241 10243 10245 10247 10249 10252 10256 10258 10262 10264 10266 10271 10276 10274 10275 10272 10272 10269 10268 10270 10272 10272 10273 10274 10275
10202 10200 10198 10197 10197 10198 10199 10199 10200 10201 10202 10205 10208 10211 10213 10216 10218 10221 10223 10225 10228 10230 10232 10234 10236 10238 10240 10241 10244 10246 10248 10249 10247 10246 10248 10248 10249 10251 10253 10255 10256 10258 10261
10192 10189 10189 10189 10188 10188 10188 10189 10189 10190 10192 10193 10194 10197 10199 10202 10205 10208 10209 10210 10212 10213 10214 10215 10218 10219 10220 10222 10224 10225 10227 10228 10229 10230 10231 10233 10235 10237 10239 10241 10243 10247 10252